PDT,Max TemperatureF,Mean TemperatureF,Min TemperatureF,Max Dew PointF,MeanDew PointF,Min DewpointF,Max Humidity, Mean Humidity, Min Humidity, Max Sea Level PressureIn, Mean Sea Level PressureIn, Min Sea Level PressureIn, Max VisibilityMiles, Mean VisibilityMiles, Min VisibilityMiles, Max Wind SpeedMPH, Mean Wind SpeedMPH, Max Gust SpeedMPH,PrecipitationIn, CloudCover, Events, WindDirDegrees
2011-10-1,59,52,48,51,47,43,93,84,69,29.99,29.93,29.87,10,10,6,5,1,,0.02,6,Rain,212
2011-10-2,57,50,44,52,48,43,100,89,74,29.99,29.93,29.80,10,6,2,13,1,,0.01,5,Rain,70
2011-10-3,61,56,52,52,50,48,94,83,70,29.81,29.79,29.75,10,10,6,14,8,22,0.01,6,Rain,141
2011-10-4,59,55,51,50,47,44,89,76,60,29.75,29.60,29.44,10,10,10,21,9,34,0.00,5,,129
2011-10-5,55,53,51,50,48,46,94,86,72,29.77,29.57,29.42,10,10,8,10,5,,0.04,7,Rain,123
2011-10-6,60,53,46,50,48,45,97,83,63,30.05,29.94,29.79,10,9,2,7,1,,0.00,7,,124
2011-10-7,61,51,42,52,48,42,100,88,68,30.24,30.16,30.05,10,7,0,6,3,,0.04,5,Fog-Rain,199
2011-10-8,61,51,41,50,44,39,100,90,62,30.25,30.20,30.06,10,4,0,6,1,,0.01,4,Fog-Rain,9
2011-10-9,62,52,43,49,45,41,94,81,52,30.08,30.01,29.83,10,10,7,5,1,,0.00,3,,177
2011-10-10,60,52,48,52,49,44,96,86,72,29.78,29.58,29.48,10,9,3,15,3,20,0.14,8,Rain,95
2011-10-11,57,54,51,52,50,46,94,89,75,30.03,29.72,29.50,10,10,6,10,6,18,0.27,6,Rain,170
2011-10-12,59,50,43,50,46,41,96,84,64,30.26,30.19,30.06,10,10,8,9,3,,0.01,5,Rain,187
2011-10-13,55,47,39,47,42,37,100,87,66,30.27,30.23,30.08,10,6,1,10,1,,0.00,1,,338
2011-10-14,55,47,39,47,44,39,97,81,62,30.08,30.04,30.01,10,10,10,8,4,20,0.00,0,,340
2011-10-15,54,48,42,45,42,40,93,82,66,30.15,30.10,30.06,10,10,10,9,3,,0.01,1,,309
2011-10-16,55,48,41,44,42,39,96,84,64,30.33,30.19,30.08,10,10,5,6,3,,0.00,3,,264
2011-10-17,59,50,44,46,45,43,93,82,60,30.46,30.41,30.35,10,8,5,7,1,,0.00,4,,82
2011-10-18,59,52,46,49,46,44,93,82,64,30.35,30.19,29.96,10,10,8,10,5,16,0.01,1,,334
2011-10-19,61,52,42,50,46,40,97,81,67,30.07,29.99,29.92,10,10,6,12,4,20,0.04,3,Rain,183
2011-10-20,57,50,46,52,48,42,94,88,62,30.13,30.09,30.06,10,7,0,7,3,,0.03,7,Fog-Rain,173
2011-10-21,55,52,48,54,50,46,94,89,86,30.22,30.12,30.08,10,8,2,13,3,22,0.05,7,Rain,134
2011-10-22,59,54,50,53,50,47,94,89,74,30.21,30.14,30.12,10,9,3,8,3,,0.37,6,Rain,300
2011-10-23,57,50,42,49,44,39,93,82,62,30.22,30.18,30.14,10,10,8,6,2,,0.01,2,,175
2011-10-24,57,48,37,42,39,36,93,75,49,30.40,30.28,30.16,10,10,10,6,2,,0.00,2,,177
2011-10-25,52,44,37,45,41,36,96,90,66,30.51,30.46,30.41,10,10,10,7,1,,0.00,4,,290
2011-10-26,50,44,39,44,41,38,93,85,71,30.31,30.24,30.19,10,9,5,9,5,,0.03,5,Rain,119
2011-10-27,52,42,33,45,37,32,100,89,58,30.36,30.31,30.08,10,5,0,6,1,,0.00,1,Fog,353
2011-10-28,54,48,44,48,43,37,89,80,59,30.09,29.93,29.81,10,8,2,20,6,31,0.37,5,Rain,123
2011-10-29,57,49,41,47,43,39,96,82,64,30.32,30.24,30.11,10,10,6,8,3,,0.00,3,,145
2011-10-30,57,50,43,52,46,40,94,85,74,30.17,30.06,30.01,10,9,2,15,5,28,0.09,6,Rain,146
2011-10-31,55,48,41,43,39,29,93,72,53,30.49,30.36,30.20,10,10,10,9,4,,0.00,4,,231